Location: Devore Heights
(34.2372°N, 117.4156°W)
Time: 19:13:20
(UTC+00:00)

deb Explorer IX - Pass Details

Date: 21 September 2024
Orbit: 502 x 816 km, 38.7° (Epoch: 15 October)

Event Time Altitude Azimuth Distance (km) Brightness Sun altitude
Rises 02:17:35 0° 266° (W) 3,273 ? -6.9°
Reaches altitude 10° 02:20:03 10° 270° (W) 2,383 ? -7.4°
Maximum altitude 02:25:43 61° 350° (N) 941 ? -8.6°
Drops below altitude 10° 02:31:35 10° 71° (ENE) 2,464 ? -9.8°
Enters shadow 02:31:49 - 71° (ENE) 2,548 ? -9.8°
Sets 02:34:10 0° 75° (ENE) 3,393 - -10.3°
